{"data":{"norad_id":58828,"epoch":"2026-09-20T13:53:21.079680Z","epoch_age_seconds":145637,"freshness":"FRESH","line1":"1 58828U 24017C   26263.57871620  .00000139  00000+0  15253-4 0  9992","line2":"2 58828  53.1602  17.0259 0001209  78.4520 281.6619 15.34389844149929","mean_motion":15.34389844,"eccentricity":0.0001209,"inclination_deg":53.1602,"raan_deg":17.0259,"arg_perigee_deg":78.452,"mean_anomaly_deg":281.6619,"bstar":1.5253e-5,"rev_number":14992,"period_min":93.848379251916,"perigee_km":461.90636491136,"apogee_km":463.5604873804,"semimajor_km":6840.8704261459,"source":"CELESTRAK","updated_at":"2026-09-21T09:00:33.983094Z"}}